Flag for U.S.A. Weather past 2 weeks in Wilmington, Delaware, U.S.A.

Now
60 °F

Overcast.


Feels Like: 60 °F
Forecast: 55 / 72 °F
Wind: 3 mph from Northwest

Location: New Castle County Airport

Current Time: Sep 16, 2014 at 11:46:53 PM

Latest Report: Sep 16, 2014 at 10:51 PM


Visibility: 10 mi

Pressure: 30.03 "Hg

Humidity: 80%

Dew point: 54 °F

Location of WilmingtonLocation

Historic Weather in Wilmington — Graph

°F

Wilmington temperature yesterday

Maximum temperature yesterday: 72 °F (at 4:51 PM)
Minimum temperature yesterday: 48 °F (at 6:51 AM)
Average temperature yesterday: 61 °F

Past Weeks' High & Low Weather Summary

 TemperatureHumidityPressure
High91 °F (Sep 2, 2:51 PM)97% (Sep 2, 6:51 AM)30.32 "Hg (Sep 2, 6:51 AM)
Low48 °F (Sep 15, 6:51 AM)41% (Sep 7, 4:51 PM)29.85 "Hg (Sep 2, 6:51 PM)
Average71 °F74%30.09 "Hg
* Reported Sep 1 9:51 PM — Sep 16 9:51 PM, Wilmington, Weather by CustomWeather, © 2014

Note: Actual official high and low records may vary slightly from our data, if they occured in-between our weather recording intervals... More about our weather records

Advertising

Wilmington weather history for previous 24 hours

 ConditionsComfort  
Time TempWeatherWind HumidityBarometerVisibility
9:51 PM
Sep 16
61 °FClear.6 mph81%30.03 "Hg10 mi
8:51 PM63 °FClear.5 mph75%30.02 "Hg10 mi
7:51 PM65 °FPassing clouds.6 mph68%30.01 "Hg10 mi
6:51 PM70 °FSunny.12 mph55%30.00 "Hg10 mi
5:51 PM73 °FPartly sunny.8 mph50%29.99 "Hg10 mi
4:51 PM73 °FPartly sunny.6 mph53%29.99 "Hg10 mi
3:51 PM73 °FOvercast.7 mph55%29.98 "Hg10 mi
2:51 PM74 °FPartly sunny.8 mph52%29.98 "Hg10 mi
1:51 PM72 °FOvercast.6 mph55%29.99 "Hg10 mi
12:51 PM74 °FPartly sunny.10 mph56%29.99 "Hg10 mi
11:51 AM72 °FSunny.7 mph61%30.01 "Hg10 mi
10:51 AM71 °FSunny.10 mph66%30.02 "Hg10 mi
9:51 AM68 °FPassing clouds.12 mph78%30.02 "Hg10 mi
8:51 AM65 °FSunny.8 mph87%30.01 "Hg10 mi
7:51 AM62 °FPassing clouds.No wind93%29.99 "Hg9 mi
6:51 AM61 °FOvercast.3 mph93%30.00 "Hg10 mi
5:51 AM62 °FRain. Fog.3 mph93%29.99 "Hg5 mi
4:51 AM65 °FOvercast.8 mph85%29.99 "Hg10 mi
3:51 AM63 °FOvercast.5 mph87%30.02 "Hg10 mi
2:51 AM60 °FMostly cloudy.3 mph90%30.04 "Hg10 mi
1:51 AM63 °FMostly cloudy.5 mph75%30.06 "Hg10 mi
12:51 AM63 °FClear.No wind68%30.07 "Hg10 mi
11:51 PM
Sep 15
61 °FClear.No wind78%30.09 "Hg10 mi
Weather by CustomWeather, © 2014

See weather overviewHow to use our weather pages